Location: Fisheating Creek Campgrounds
(26.9333°N, 81.3167°W)
Time: 02:48:57
(UTC-04:00)

Cosmos 2221 Rocket - Visible Passes

Search period start: 25 July 2017 00:00
Search period end: 04 August 2017 00:00
Orbit: 620 x 649 km, 82.5° (Epoch: 24 July)

Date Brightness Start Highest point End Pass type
(mag) Time Alt. Az. Time Alt. Az. Time Alt. Az.
25 Jul 4.1 21:48:32 10° NNE 21:52:42 39° E 21:52:52 38° E visible
25 Jul 6.5 23:29:09 10° WNW 23:30:22 11° W 23:30:22 11° W visible
26 Jul 3.5 22:10:28 10° N 22:14:55 84° W 22:15:20 72° SSW visible
27 Jul 5.5 20:56:42 10° NE 20:58:49 13° ENE 21:00:21 11° E visible
27 Jul 5.0 22:33:01 10° NNW 22:37:01 34° W 22:37:51 31° WSW visible
28 Jul 4.5 21:17:15 10° NNE 21:21:12 30° E 21:22:54 23° ESE visible
28 Jul 6.2 22:56:35 10° NW 22:59:01 15° W 23:00:24 13° WSW visible
29 Jul 3.5 21:38:59 10° N 21:43:27 75° E 21:45:30 32° SSE visible
30 Jul 4.6 22:01:21 10° NNW 22:05:35 44° W 22:08:09 21° SSW visible
31 Jul 4.8 20:46:03 10° NNE 20:49:41 24° E 20:53:18 10° SE visible
31 Jul 6.1 22:24:30 10° NW 22:27:37 19° W 22:30:45 10° SW visible
01 Aug 3.7 21:07:33 10° N 21:11:58 57° E 21:16:07 12° SSE visible
02 Aug 4.2 21:29:44 10° NNW 21:34:08 57° W 21:38:33 10° S visible
03 Aug 5.8 21:52:36 10° NW 21:56:12 24° W 21:59:48 10° SW visible
